Вернуться в каталог

DELTA 1 DEB

АктивенSSO
NORAD 10749·DEBRIS·🇺🇸 United States

Запущен Jul 29, 1976 с Vandenberg Space Force Base

Loading…

Ближайшие Пролёты (ближайшие 24 часа)

TLE

СвежийSource: Space-Track

Эпоха: Sep 14, 2026, 11:41 UTC

1 10749U 76077AW  26257.48684023 -.00000024  00000-0  18735-3 0  9999
2 10749 102.3424 344.9658 0090860 206.2033 166.9008 12.23538062239519

Отслеживайте DELTA 1 DEB в реальном времени с AllMySat

Download on the App Store